Monroe, WI

2:52 AM CST on December 10, 2019 (GMT -0600)
Monroe Municipal

Weather History for KEFT - August, 2019

Change the Weather History Date:

Tuesday, August 6, 2019

  Actual Average Record
Temperature  
Mean Temperature 65 °F -  
Max Temperature 66 °F 86 °F 87 °F (2001)
Min Temperature 64 °F 54 °F 21 °F (1998)
Growing Degree Days 15 (Base 50)    
Moisture  
Dew Point 64 °F    
Average Humidity 97    
Maximum Humidity 97    
Minimum Humidity 95    
Precipitation  
Precipitation 0.86 in - - ()
Sea Level Pressure  
Sea Level Pressure 29.83 in    
Wind  
Wind Speed 8 mph (WSW)    
Max Wind Speed 12 mph    
Max Gust Speed -    
Visibility 10 miles    
Events Rain , Thunderstorm    
Averages and records for this station are not official NWS values.
T = Trace of Precipitation, MM = Missing Value Source: NWS Daily Summary

Daily Weather History Graph

Daily Weather History Graph

Search for Another Location

Airport or City:

Astronomy

Aug. 06, 2019 Rise Set
Actual Time 5:55 AM CDT 8:12 PM CDT
Civil Twilight 5:23 AM CDT 8:43 PM CDT
Nautical Twilight 4:44 AM CDT 9:22 PM CDT
Astronomical Twilight 4:01 AM CDT 10:05 PM CDT
Moon 12:28 PM CDT (8/6) 11:48 PM CDT (8/6)
Length of Visible Light 15h 20m
Length of Day
14h 17m
Waxing Crescent, 39% of the Moon is Illuminated
Aug 6
Waxing Crescent
Aug 7
First Quarter
Aug 15
Full
Aug 23
Last Quarter
Aug 30
New

Hourly Weather History & Observations

Time (CDT) Temp. Dew Point Humidity Pressure Visibility Wind Dir Wind Speed Gust Speed Precip Events Conditions
12:15 AM 65.7 °F 64.6 °F 96% 29.85 in 7.0 mi SSW 6.9 mph - 0.06 in Rain , Thunderstorm Rain
12:35 AM 65.5 °F 64.4 °F 96% 29.83 in 10.0 mi South 10.4 mph - 0.14 in Rain Light Rain
12:55 AM 65.3 °F 64.4 °F 97% 29.80 in 10.0 mi North - - 0.21 in Rain Light Rain
1:15 AM 65.5 °F 64.6 °F 97% 29.81 in 10.0 mi South 4.6 mph - 0.05 in Rain Light Rain
1:35 AM 65.7 °F 64.8 °F 97% 29.82 in 10.0 mi WSW 6.9 mph - 0.11 in Rain Light Rain
1:55 AM 65.8 °F 64.9 °F 97% 29.85 in 10.0 mi WSW 9.2 mph - 0.17 in Rain Rain
2:15 AM 65.8 °F 64.9 °F 97% 29.81 in 10.0 mi South 10.4 mph - 0.05 in   Light Drizzle
2:35 AM 65.5 °F 64.6 °F 97% 29.83 in 10.0 mi SSW 5.8 mph - 0.10 in   Scattered Clouds
2:55 AM 65.3 °F 64.4 °F 97% 29.82 in 10.0 mi SW 6.9 mph - 0.15 in   Clear
3:15 AM 64.8 °F 63.9 °F 97% 29.83 in 10.0 mi SW 6.9 mph - 0.04 in   Mostly Cloudy
3:35 AM 64.9 °F 64.0 °F 97% 29.83 in 10.0 mi WSW 8.1 mph - 0.09 in   Overcast
3:55 AM 64.8 °F 63.9 °F 97% 29.83 in 10.0 mi West 10.4 mph - 0.14 in   Overcast
4:15 AM 64.9 °F 64.0 °F 97% 29.83 in 10.0 mi West 11.5 mph - 0.03 in   Overcast
4:35 AM 64.9 °F 64.0 °F 97% 29.83 in 10.0 mi WNW 10.4 mph - 0.07 in   Overcast
4:55 AM 64.9 °F 64.0 °F 97% 29.83 in 10.0 mi West 6.9 mph - 0.11 in   Mostly Cloudy
5:15 AM 65.3 °F 64.4 °F 97% 29.83 in 10.0 mi West 8.1 mph - 0.03 in   Overcast
5:35 AM 65.5 °F 64.6 °F 97% 29.84 in 10.0 mi WNW 10.4 mph - 0.06 in   Overcast
5:55 AM 65.8 °F 64.8 °F 96% 29.84 in 10.0 mi West 10.4 mph - 0.08 in   Overcast
6:15 AM 66.2 °F 64.8 °F 95% 29.85 in 10.0 mi West 9.2 mph - N/A   Overcast
6:35 AM 66.2 °F 64.8 °F 95% 29.86 in 10.0 mi WNW 9.2 mph - N/A   Overcast
6:55 AM 66.4 °F 64.9 °F 95% 29.86 in 7.0 mi West 8.1 mph - N/A   Overcast
7:15 AM 66.4 °F 64.9 °F 95% 29.85 in 10.0 mi West 10.4 mph - N/A   Overcast